User: anonymous   Login
Location: NJAA Observatory
(40.6819°N, 74.8979°W)
Time: 12:51:44
(UTC-05:00)
Language:

Cosmos 220 Rocket - Orbit

View from above orbital plane
View from above orbital plane
View from above satellite
View from above satellite

Ground track
Ground track

The orbit data is extracted from the following two-line orbital elements,

1  3230U 68040B   18022.89484592 +.00000139 +00000-0 +18273-4 0  9996
2  3230 074.0356 163.4420 0029358 055.2717 305.1223 14.90281691647003
Epoch (UTC): 22 January 2018 21:28:34
Eccentricity: 0.0029358
inclination: 74.0356°
perigee height: 576 km
apogee height: 617 km
right ascension of ascending node: 163.4420°
argument of perigee: 55.2717°
revolutions per day: 14.90281691
mean anomaly at epoch: 305.1223°
orbit number at epoch: 64700

The dashed part of the orbit path shows where the satellite is in the earth's shadow,  

DLR